CAPE
nan nan nan 1 1 nan nan nan nan nan nan nan nan nan nan 0 0 0 6 3 3 1 3 7 7 8 25 66 87 87 102 118 137 137 148 164 177 177 189 200 200 223 225 226 226 222 238 248 248 256 269 294 291 291 285 282 282 279 262 267 267 269 274 283 283 292 305 302 309 309 312 318 324 324 320 314 303 303 300 299 299 297 300 293 293 282
nan nan 0 0 0 nan nan nan nan nan nan nan nan nan nan nan 0 0 3 6 6 4 6 9 9 15 14 44 89 89 107 128 152 152 162 169 176 176 180 183 183 190 196 198 198 206 218 243 243 243 234 227 227 227 216 213 213 215 209 226 226 231 242 252 252 262 273 270 273 273 294 300 302 302 307 307 301 301 297 298 298 304 316 302 302 292
nan nan nan 0 0 nan nan nan nan nan nan nan nan nan nan 0 1 1 1 4 4 10 12 15 15 18 18 37 94 94 111 135 151 151 152 155 152 152 159 159 159 165 172 189 189 186 191 190 190 185 183 176 179 179 172 175 175 178 185 194 194 208 225 236 236 248 242 244 256 256 266 274 271 271 280 292 295 295 306 309 309 305 319 315 315 303
0 nan nan nan nan nan nan nan nan nan nan nan 0 0 1 1 1 1 3 5 5 17 20 19 19 14 13 25 71 71 108 122 134 134 131 131 132 132 135 137 137 142 147 148 148 150 147 148 148 154 151 156 155 155 165 174 174 176 181 194 194 212 226 233 233 238 241 248 250 250 260 251 244 244 253 263 293 293 301 314 314 301 305 306 306 316
3 nan nan nan nan nan nan nan nan nan nan nan nan nan 2 2 7 7 20 28 28 22 15 11 11 11 14 22 54 54 95 107 111 111 112 108 111 111 107 107 107 105 104 102 102 108 115 119 119 132 134 146 159 159 165 176 176 179 194 208 208 219 239 249 249 249 262 262 273 273 272 270 271 271 269 287 310 310 330 321 321 319 302 311 311 338
1 1 0 nan nan nan nan nan nan nan nan 0 0 0 2 8 26 26 31 29 29 16 15 15 15 14 13 11 38 38 73 84 85 85 87 83 82 82 79 80 80 81 84 91 91 97 105 110 110 115 130 139 159 159 173 187 187 192 202 215 215 227 245 263 263 274 276 268 283 283 279 290 292 292 301 307 325 325 337 340 340 330 309 314 314 337
3 3 2 0 0 nan nan nan nan nan nan 0 5 5 14 28 21 21 23 17 17 19 17 12 12 9 7 10 30 30 47 52 52 52 53 58 63 63 68 74 74 80 86 93 93 100 107 110 110 117 132 152 168 168 176 192 192 198 215 220 220 235 243 250 250 256 262 252 252 252 255 265 277 277 284 284 300 300 313 315 315 313 300 308 308 319
4 3 3 1 1 0 nan 1 1 1 3 6 18 18 21 19 13 13 19 20 20 12 3 0 0 nan nan nan nan nan nan nan 0 0 7 18 39 39 54 72 72 86 94 97 97 105 109 122 122 133 142 155 164 164 171 167 167 165 160 161 161 161 168 175 175 176 173 174 176 176 175 182 187 187 190 191 194 194 204 212 212 228 251 270 270 285
6 3 1 3 3 0 0 2 2 2 16 33 30 30 24 11 5 5 5 3 3 3 0 nan nan nan nan nan nan nan 3 8 4 4 7 2 5 5 36 64 64 80 96 100 100 104 110 115 115 125 132 136 140 140 140 134 134 129 126 126 126 130 133 138 138 149 150 155 163 163 167 168 176 176 176 172 173 173 173 183 183 201 222 255 255 274
9 5 0 1 1 2 1 12 21 21 52 45 39 39 21 5 3 3 1 nan nan nan nan nan nan nan nan nan nan nan 2 9 40 40 63 44 70 70 56 51 51 53 87 95 95 100 104 104 104 108 104 112 112 112 110 102 102 102 106 102 102 113 115 125 125 135 143 148 155 155 164 169 168 168 173 170 168 168 165 171 171 179 207 229 229 253
4 3 0 1 1 1 4 21 30 30 30 19 7 7 2 3 3 3 0 nan nan nan nan nan nan 0 0 nan nan nan 1 nan 3 3 26 40 52 52 56 56 56 62 76 77 77 76 79 80 80 82 86 89 90 90 87 81 81 87 89 96 96 102 105 114 114 124 133 142 147 147 160 165 176 176 176 169 167 167 165 166 166 176 196 222 222 240
2 1 1 0 0 6 20 17 10 10 5 3 0 0 0 2 5 5 1 0 0 nan nan 0 0 0 nan nan 1 1 1 nan 1 1 2 6 17 17 19 19 19 28 37 41 41 45 56 62 62 67 67 69 78 78 76 69 69 81 83 90 90 95 98 108 108 114 128 143 156 156 163 173 178 178 177 182 176 176 168 171 171 178 199 223 223 239
1 nan 0 28 28 31 11 2 0 0 1 1 0 0 0 0 1 1 2 0 0 0 nan nan nan nan nan 0 2 2 2 0 0 0 5 4 4 4 3 3 3 5 5 4 4 3 27 51 51 56 62 61 66 66 71 68 68 74 78 88 88 93 102 109 109 121 144 160 172 172 175 181 180 180 186 187 187 187 180 180 180 189 213 227 227 239
3 7 24 15 15 3 0 0 2 2 0 0 nan nan 0 0 1 1 2 1 1 1 0 nan nan nan 0 2 5 5 2 4 5 5 8 6 7 7 4 2 2 3 2 1 1 4 21 28 28 21 46 49 53 53 56 66 66 78 82 90 90 100 114 126 126 144 162 181 182 182 184 180 191 191 197 196 197 197 193 196 196 203 213 229 229 240
8 19 6 1 1 nan 1 1 0 0 0 nan 0 0 0 1 2 2 0 1 1 2 2 4 4 3 4 0 3 3 2 2 5 5 7 5 7 7 4 3 3 2 3 4 4 5 22 18 18 8 12 23 27 27 42 55 55 84 90 104 104 114 127 143 143 156 164 172 171 171 177 177 185 185 190 192 195 195 196 198 198 201 218 219 219 229
8 2 nan 0 0 0 1 0 nan nan nan nan 0 0 2 1 0 0 nan nan nan 2 3 9 9 6 4 4 4 4 1 0 3 3 4 3 4 4 4 2 2 4 4 5 5 4 7 6 6 7 10 28 51 51 60 73 73 89 98 110 110 121 129 141 141 147 156 160 164 164 163 170 174 174 180 182 187 187 186 189 189 199 208 206 206 210
0 0 nan nan nan 0 1 nan nan nan nan 0 1 1 2 1 0 0 3 6 6 5 8 14 14 6 3 3 1 1 1 0 1 1 3 5 4 4 5 1 1 5 4 2 2 1 2 4 4 6 10 37 59 59 67 77 77 91 98 106 106 114 121 128 128 134 143 147 152 152 160 162 167 167 173 175 175 175 173 179 179 190 198 197 197 202
3 2 1 nan nan nan nan nan nan nan 1 1 1 1 0 3 3 3 nan 1 1 12 14 10 10 1 2 2 0 0 2 nan 0 0 0 3 2 2 5 2 2 1 1 2 2 3 4 4 4 6 17 60 69 69 72 84 84 90 97 101 101 107 112 119 119 129 139 144 157 157 161 165 172 172 173 176 177 177 180 182 182 193 205 204 204 207
7 3 0 nan nan nan nan nan 0 0 2 1 2 2 5 7 6 6 4 1 1 6 11 1 1 2 3 2 0 0 1 nan nan nan 3 3 4 4 4 3 3 3 2 4 4 4 4 8 8 28 49 66 71 71 77 84 84 90 98 100 100 105 111 121 121 132 138 146 153 153 161 164 166 166 173 175 181 181 179 189 189 203 210 214 214 215
5 1 nan nan nan nan 0 1 3 3 6 6 5 5 5 2 4 4 6 6 6 2 5 1 1 3 3 2 1 1 1 0 2 2 2 4 5 5 2 2 2 4 1 2 2 3 5 11 11 20 46 61 71 71 77 86 86 93 96 101 101 108 114 120 120 129 138 145 147 147 153 150 157 157 159 162 169 169 174 186 186 191 198 214 214 216
5 1 0 nan nan 0 1 3 5 5 14 17 3 3 3 6 9 9 7 6 6 4 5 7 7 9 7 5 2 2 4 0 2 2 nan 3 3 3 1 2 2 3 3 3 3 5 8 10 10 12 29 55 68 68 76 80 80 88 93 94 94 101 108 116 116 120 126 133 138 138 140 142 145 145 148 151 154 154 157 163 163 170 180 188 188 201
2 0 nan 0 0 1 6 4 13 13 20 4 5 5 9 6 7 7 10 5 5 7 11 12 12 8 7 3 2 2 5 3 2 2 1 3 4 4 1 1 1 2 4 3 3 5 8 6 6 5 25 56 63 63 68 77 77 84 91 92 92 98 102 106 106 113 120 125 127 127 126 134 138 138 141 144 143 143 143 145 145 151 156 161 161 162
1 0 0 4 4 3 4 6 14 14 23 10 9 9 19 6 7 7 9 13 13 10 12 9 9 8 8 6 4 4 4 2 1 1 1 1 1 1 1 1 1 1 2 1 1 2 4 2 2 1 20 56 57 57 66 72 72 79 84 90 90 91 95 99 99 104 107 113 120 120 127 132 137 137 144 142 144 144 143 145 145 144 144 148 148 144
4 5 6 9 9 8 5 7 10 10 12 13 12 12 20 15 15 15 16 14 14 12 7 6 6 8 12 7 3 3 4 1 nan nan nan 2 3 3 0 1 1 1 1 0 0 0 1 2 2 4 13 44 54 54 62 67 67 75 77 83 83 80 86 90 90 95 102 112 116 116 127 133 139 139 142 144 139 139 138 138 138 141 143 143 143 140
4 7 13 22 22 40 40 37 35 35 16 11 14 14 26 31 31 31 19 13 13 7 6 7 7 7 9 10 2 2 2 1 nan nan 1 3 1 1 0 2 2 2 0 0 0 nan nan 1 1 2 4 22 42 42 53 59 59 63 68 70 70 75 79 84 84 88 92 97 109 109 109 119 117 117 121 121 113 113 120 121 121 129 131 130 130 132
26 27 42 74 74 112 106 84 62 62 42 20 16 16 16 23 22 22 13 11 11 6 5 3 3 5 5 2 0 0 1 4 2 2 1 0 2 2 1 5 5 2 1 1 1 2 nan nan nan nan 1 7 34 34 41 48 48 55 59 62 62 63 65 72 72 72 74 78 83 83 87 87 91 91 92 91 94 94 96 103 103 106 109 109 109 115
76 101 131 123 123 95 68 56 63 63 76 58 24 24 17 15 13 13 12 7 7 5 0 2 2 4 4 1 1 1 2 3 2 2 1 1 2 2 3 3 3 2 2 1 1 0 4 3 3 2 2 1 11 11 30 38 38 45 47 49 49 52 52 54 54 55 58 62 66 66 72 78 83 83 86 92 89 89 95 97 97 96 97 90 90 100
97 103 78 52 52 40 38 44 51 51 55 60 69 69 38 15 9 9 11 7 7 3 0 3 3 5 5 0 1 1 1 3 1 1 1 2 3 3 2 0 0 1 1 0 0 6 18 8 8 3 1 0 2 2 16 29 29 34 35 36 36 37 41 39 39 44 46 48 50 50 55 61 69 69 72 76 86 86 90 94 94 98 94 77 77 49
66 44 28 26 26 27 31 38 44 44 48 52 61 61 42 13 7 7 9 7 7 3 3 4 4 3 5 3 1 1 0 1 1 1 1 3 5 5 1 0 0 3 1 2 2 4 6 3 3 0 0 1 0 0 5 17 17 18 24 27 27 30 31 35 35 39 39 45 47 47 51 57 60 60 64 69 76 76 84 87 87 90 82 73 73 52
15 11 13 18 18 23 27 19 31 31 43 49 54 54 39 11 8 8 7 5 5 5 4 6 6 4 2 4 3 3 0 nan nan nan nan 1 1 1 1 0 0 3 2 5 5 1 nan 0 0 nan nan 2 0 0 nan 4 4 4 10 22 22 22 24 29 29 35 41 46 50 50 53 59 63 63 63 68 73 73 78 81 81 74 56 52 52 60
0 1 2 7 7 10 9 7 18 18 36 43 41 41 29 8 6 6 3 4 4 4 2 3 3 2 3 3 3 3 nan nan nan nan nan 2 3 3 4 1 1 2 2 2 2 1 0 nan nan nan 0 0 0 0 nan 0 0 0 0 3 3 10 18 21 21 29 38 41 46 46 49 52 56 56 57 61 67 67 71 78 78 66 39 33 33 30
4 3 2 3 3 3 3 2 2 2 3 4 4 4 8 7 5 5 3 3 3 3 1 2 2 5 5 1 1 1 1 nan 2 2 4 nan 5 5 4 0 0 0 4 nan nan nan 0 0 0 nan nan nan nan nan nan nan nan nan nan nan nan nan 1 6 6 9 11 21 24 24 28 28 30 30 36 40 47 47 50 52 52 53 24 10 10 11
9 6 3 4 4 5 5 3 2 2 3 1 2 2 2 2 5 5 4 3 3 2 2 1 1 1 4 3 3 3 1 0 4 4 10 0 2 2 3 1 1 3 4 1 1 nan nan nan nan nan nan nan nan nan nan nan nan nan nan nan nan nan nan 1 1 0 2 5 8 8 15 15 20 20 26 30 34 34 39 41 41 44 38 6 6 10
8 7 5 5 5 5 6 4 3 3 1 2 2 2 2 1 1 1 3 1 1 0 0 0 0 0 0 3 1 1 1 nan 4 4 8 0 0 0 0 0 0 nan 0 0 0 1 nan nan nan nan nan nan nan nan nan nan nan nan nan nan nan nan nan nan nan nan nan nan nan nan 0 1 12 12 13 18 22 22 27 33 33 37 42 25 25 12
6 7 6 5 5 4 4 3 3 3 2 1 1 1 1 1 0 0 1 1 1 nan nan nan nan nan nan nan 0 0 0 nan 2 2 9 0 0 0 nan 0 0 1 0 1 1 nan 0 0 0 3 0 nan nan nan nan nan nan nan nan nan nan nan nan nan nan nan nan nan nan nan nan nan nan nan 2 9 15 15 22 29 29 33 39 44 44 34
7 6 5 3 3 4 3 3 2 2 1 0 0 0 0 0 0 0 0 nan nan 0 2 0 0 nan nan nan nan nan 1 nan 3 3 8 1 nan nan nan nan nan 0 0 1 1 1 0 1 1 3 2 0 nan nan nan nan nan nan nan nan nan nan nan nan nan nan nan nan nan nan nan nan nan nan 0 11 18 18 23 27 27 30 31 37 37 42
7 6 5 3 3 2 4 2 1 1 1 0 0 0 0 nan 0 0 0 1 1 1 1 4 4 1 3 nan nan nan 0 0 1 1 3 0 nan nan nan 0 0 2 nan 0 0 0 nan 1 1 2 0 0 nan nan nan nan nan nan nan nan nan nan nan nan nan nan nan nan nan nan nan 0 0 0 2 10 13 13 19 24 24 25 27 27 27 33
8 5 5 4 4 3 2 1 1 1 0 nan 0 0 0 nan 0 0 0 2 2 2 nan nan nan nan 4 7 1 1 0 nan nan nan 1 1 nan nan nan 0 0 2 1 nan nan nan 0 nan nan 0 0 nan 0 0 0 nan nan nan nan nan nan nan nan nan nan nan nan 0 2 2 2 0 nan nan 0 1 2 2 3 1 1 9 15 17 17 25
7 6 5 5 5 3 2 1 0 0 nan 0 0 0 nan 0 1 1 0 1 1 1 1 nan nan nan nan nan 5 5 5 2 nan nan nan nan nan nan nan 0 0 0 1 nan nan nan nan nan nan 0 0 nan 0 0 nan nan nan nan nan nan nan nan nan nan nan 0 nan nan 1 1 0 nan nan nan nan nan nan nan 0 nan nan 1 2 1 1 10
7 5 5 6 6 4 1 1 0 0 nan 0 2 2 1 1 1 1 1 0 0 0 1 1 1 0 0 2 2 2 2 nan 0 0 nan nan nan nan nan nan nan 0 0 0 0 0 nan nan nan 0 1 nan nan nan nan nan nan nan 0 nan nan nan nan nan nan nan nan nan nan nan nan nan nan nan nan nan nan nan nan nan nan nan 0 nan nan nan
9 5 5 4 4 5 2 1 0 0 0 nan 0 0 0 0 0 0 0 0 0 1 1 0 0 1 1 0 nan nan nan nan nan nan nan nan nan nan nan nan nan nan nan nan nan nan 0 0 0 1 0 0 0 0 0 nan nan 0 2 nan nan nan nan nan nan nan nan nan nan nan nan 0 0 0 nan nan nan nan nan nan nan nan 0 nan nan nan
10 6 2 1 1 1 0 1 1 1 1 1 nan nan 1 nan nan nan 0 0 0 0 0 nan nan 1 1 0 nan nan nan nan nan nan nan nan nan nan nan nan nan nan nan nan nan nan 0 0 0 1 0 nan nan nan nan nan nan nan 0 nan nan nan nan nan nan nan nan nan nan nan 2 nan nan nan nan nan nan nan nan nan nan 0 1 nan nan nan
6 4 1 1 1 0 0 2 2 2 1 0 nan nan 0 0 0 0 0 0 0 1 0 0 0 1 1 0 nan nan nan nan nan nan nan nan nan nan nan nan nan nan nan nan nan 0 2 2 2 0 0 nan nan nan 0 nan nan nan nan nan nan 0 nan nan nan nan nan nan nan nan nan nan nan nan nan nan nan nan nan 0 0 5 4 nan nan nan
2 1 2 1 1 1 1 2 0 0 nan nan nan nan nan 1 1 1 0 0 0 2 1 1 1 2 2 0 nan nan nan nan nan nan nan nan nan nan nan 0 0 1 0 nan nan 0 1 1 1 0 nan nan nan nan nan nan nan nan nan nan nan nan nan nan nan nan nan nan nan nan nan nan nan nan 0 nan nan nan nan nan nan nan 1 0 0 0
2 2 3 1 1 1 0 nan nan nan nan nan nan nan nan 1 1 1 nan 1 1 2 1 1 1 1 nan nan nan nan nan nan nan nan nan nan 5 5 3 0 0 nan 0 nan nan nan 0 0 0 nan nan nan nan nan nan nan nan nan nan nan nan nan nan nan nan nan nan nan nan nan nan nan nan nan 0 0 0 0 nan nan nan nan nan nan nan 0
3 3 2 1 1 1 1 0 0 0 nan 0 nan nan nan nan nan nan 0 0 0 1 1 2 2 nan nan 0 nan nan nan nan nan nan nan nan 0 0 0 nan nan nan nan nan nan nan nan nan nan 0 0 nan nan nan nan nan nan nan nan nan nan nan nan nan nan nan nan nan nan nan nan nan nan nan nan 2 3 3 5 6 6 nan 0 0 0 1
2 1 1 0 0 0 nan 0 0 0 nan 0 nan nan nan 0 1 1 0 0 0 nan 0 1 1 nan nan nan nan nan nan 0 nan nan nan nan nan nan nan nan nan 0 nan nan nan nan 0 nan nan 1 0 nan nan nan nan nan nan nan nan nan nan nan nan nan nan nan nan nan nan nan nan 0 nan nan 0 0 3 3 3 3 3 2 2 2 2 4
1 0 nan 0 0 0 nan 0 nan nan 0 1 0 0 nan 0 1 1 1 1 1 1 2 0 0 0 nan nan nan nan 0 0 0 0 0 nan nan nan nan nan nan nan 1 1 1 2 0 nan nan nan 0 nan nan nan nan nan nan nan nan nan nan nan nan nan nan nan nan nan nan nan nan nan 0 0 0 1 1 1 1 0 0 0 5 12 12 8
3 0 0 1 1 1 0 nan nan nan 0 0 0 0 nan 1 8 8 1 0 0 0 0 0 0 0 nan nan nan nan 0 0 0 0 nan nan nan nan nan nan nan nan nan 0 0 nan nan nan nan nan nan nan nan nan nan nan nan nan nan nan nan nan nan nan nan nan nan nan nan nan nan nan nan nan nan nan 0 0 0 nan nan nan 1 5 5 3
2 0 1 0 0 1 0 nan nan nan 0 0 nan nan nan nan nan nan nan 0 0 0 nan nan nan nan nan nan nan nan nan nan 0 0 nan nan nan nan nan 0 0 0 1 nan nan nan nan nan nan nan nan nan nan nan nan nan nan 0 0 nan nan nan nan nan nan nan nan nan 0 0 0 nan nan nan nan nan 0 0 0 nan nan nan nan nan nan 0
2 2 0 0 0 0 0 0 nan nan nan nan 0 0 nan nan nan nan nan nan nan nan nan nan nan nan nan nan 0 0 nan nan nan nan nan nan nan nan nan 0 0 1 1 0 0 nan nan nan nan nan nan nan nan nan nan 0 0 1 1 0 0 nan nan nan nan nan 1 0 0 0 0 0 0 0 nan 0 1 1 0 nan nan nan nan nan nan 1
CIN
nan nan nan -0 -0 nan nan nan nan nan nan nan nan nan nan -0 -0 -0 -0 -0 -0 -0 -0 -0 -0 -0 -0 -0 -0 -0 -0 -0 -0 -0 -0 -0 -0 -0 -0 -0 -0 -0 -0 -0 -0 -0 -0 -0 -0 -0 -0 -0 -0 -0 -0 -0 -0 -0 -0 -0 -0 -0 -0 -0 -0 -0 -0 -0 -0 -0 -0 -0 -0 -0 -0 -0 -0 -0 -0 -0 -0 -0 -0 -0 -0 -0
nan nan -0 -0 -0 nan nan nan nan nan nan nan nan nan nan nan -0 -0 -0 -0 -0 -0 -0 -0 -0 -0 -0 -0 -0 -0 -0 -0 -0 -0 -0 -0 -0 -0 -0 -0 -0 -0 -0 -0 -0 -0 -0 -0 -0 -0 -0 -0 -0 -0 -0 -0 -0 -0 -0 -0 -0 -0 -0 -0 -0 -0 -0 -0 -0 -0 -0 -0 -0 -0 -0 -0 -0 -0 -0 -0 -0 -0 -0 -0 -0 -0
nan nan nan -0 -0 nan nan nan nan nan nan nan nan nan nan -0 -0 -0 -0 -0 -0 -0 -0 -0 -0 -0 -0 -0 -0 -0 -0 -0 -0 -0 -0 -0 -0 -0 -0 -0 -0 -0 -0 -0 -0 -0 -0 -0 -0 -0 -0 -0 -0 -0 -0 -0 -0 -0 -0 -0 -0 -0 -0 -0 -0 -0 -0 -0 -0 -0 -0 -0 -0 -0 -0 -0 -0 -0 -0 -0 -0 -0 -0 -0 -0 -0
-0 nan nan nan nan nan nan nan nan nan nan nan -0 -0 -0 -0 -0 -0 -0 -0 -0 -0 -0 -0 -0 -0 -0 -0 -0 -0 -0 -0 -0 -0 -0 -0 -0 -0 -0 -0 -0 -0 -0 -0 -0 -0 -0 -0 -0 -0 -0 -0 -0 -0 -0 -0 -0 -0 -0 -0 -0 -0 -0 -0 -0 -0 -0 -0 -0 -0 -0 -0 -0 -0 -0 -0 -0 -0 -0 -0 -0 -0 -0 -0 -0 -0
-0 nan nan nan nan nan nan nan nan nan nan nan nan nan -0 -0 -0 -0 -0 -0 -0 -0 -0 -0 -0 -0 -0 -0 -0 -0 -0 -0 -0 -0 -0 -0 -0 -0 -0 -0 -0 -0 -0 -0 -0 -0 -0 -0 -0 -0 -0 -0 -0 -0 -0 -0 -0 -0 -0 -0 -0 -0 -0 -0 -0 -0 -0 -0 -0 -0 -0 -0 -0 -0 -0 -0 -0 -0 -0 -0 -0 -0 -0 -0 -0 -0
-0 -0 -0 nan nan nan nan nan nan nan nan -0 -0 -0 -0 -0 -0 -0 -0 -0 -0 -0 -0 -0 -0 -0 -0 -0 -0 -0 -0 -0 -0 -0 -0 -0 -0 -0 -0 -0 -0 -0 -0 -0 -0 -0 -0 -0 -0 -0 -0 -0 -0 -0 -0 -0 -0 -0 -0 -0 -0 -0 -0 -0 -0 -0 -0 -0 -0 -0 -0 -0 -0 -0 -0 -0 -0 -0 -0 -0 -0 -0 -0 -0 -0 -0
-0 -0 -0 -0 -0 nan nan nan nan nan nan -0 -0 -0 -0 -0 -0 -0 -0 -0 -0 -0 -0 -0 -0 -0 -0 -0 -0 -0 -0 -0 -0 -0 -0 -0 -0 -0 -0 -0 -0 -0 -0 -0 -0 -0 -0 -0 -0 -0 -0 -0 -0 -0 -0 -0 -0 -0 -0 -0 -0 -0 -0 -0 -0 -0 -0 -0 -0 -0 -0 -0 -0 -0 -0 -0 -0 -0 -0 -0 -0 -0 -0 -0 -0 -0
-0 -0 -0 -0 -0 -0 nan -0 -0 -0 -0 -0 -0 -0 -0 -0 -0 -0 -0 -0 -0 -0 -0 -0 -0 nan nan nan nan nan nan nan -0 -0 -0 -0 -0 -0 -0 -0 -0 -0 -0 -0 -0 -0 -0 -0 -0 -0 -0 -0 -0 -0 -0 -0 -0 -0 -0 -0 -0 -0 -0 -0 -0 -0 -0 -0 -0 -0 -0 -0 -0 -0 -0 -0 -0 -0 -0 -0 -0 -0 -0 -0 -0 -0
-0 -0 -0 -0 -0 -0 -0 -0 -0 -0 -8 -0 -0 -0 -0 -0 -0 -0 -0 -0 -0 -0 -0 nan nan nan nan nan nan nan -0 -0 -0 -0 -0 -0 -0 -0 -0 -0 -0 -0 -0 -0 -0 -0 -0 -0 -0 -0 -0 -0 -0 -0 -0 -0 -0 -0 -0 -0 -0 -0 -0 -0 -0 -0 -0 -0 -0 -0 -0 -0 -0 -0 -0 -0 -0 -0 -0 -0 -0 -0 -0 -0 -0 -0
-0 -0 -0 -0 -0 -0 -0 -0 -3 -3 -3 -0 -0 -0 -0 -0 -0 -0 -0 nan nan nan nan nan nan nan nan nan nan nan -0 -0 -0 -0 -0 -0 -0 -0 -0 -0 -0 -0 -0 -0 -0 -0 -0 -0 -0 -0 -0 -0 -0 -0 -0 -0 -0 -0 -0 -0 -0 -0 -0 -0 -0 -0 -0 -0 -0 -0 -0 -0 -0 -0 -0 -0 -0 -0 -0 -0 -0 -0 -0 -0 -0 -0
-0 -0 -0 -0 -0 -1 -2 -0 -0 -0 -0 -0 -0 -0 -0 -0 -0 -0 -0 nan nan nan nan nan nan -0 -0 nan nan nan -0 nan -0 -0 -0 -0 -0 -0 -0 -0 -0 -0 -0 -0 -0 -0 -0 -0 -0 -0 -0 -0 -0 -0 -0 -0 -0 -0 -0 -0 -0 -0 -0 -0 -0 -0 -0 -0 -0 -0 -0 -0 -0 -0 -0 -0 -0 -0 -0 -0 -0 -0 -0 -0 -0 -0
-0 -0 -0 -1 -1 -0 -0 -0 -0 -0 -0 -0 -0 -0 -0 -0 -0 -0 -0 -0 -0 nan nan -0 -0 -0 nan nan -0 -0 -0 nan -0 -0 -0 -0 -0 -0 -0 -0 -0 -0 -0 -0 -0 -0 -0 -0 -0 -0 -0 -0 -0 -0 -0 -0 -0 -0 -0 -0 -0 -0 -0 -0 -0 -0 -0 -0 -0 -0 -0 -0 -0 -0 -0 -0 -0 -0 -0 -0 -0 -0 -0 -0 -0 -0
-0 nan -0 -0 -0 -0 -0 -0 -0 -0 -0 -0 -0 -0 -0 -0 -0 -0 -0 -0 -0 -0 nan nan nan nan nan -1 -0 -0 -0 -0 -1 -1 -0 -0 -0 -0 -0 -0 -0 -0 -0 -0 -0 -0 -0 -0 -0 -0 -0 -0 -0 -0 -0 -0 -0 -0 -0 -0 -0 -0 -0 -0 -0 -0 -0 -0 -0 -0 -0 -0 -0 -0 -0 -0 -0 -0 -0 -0 -0 -0 -0 -0 -0 -0
-0 -0 -0 -0 -0 -0 -0 -0 -0 -0 -0 -0 nan nan -0 -0 -0 -0 -0 -0 -0 -0 -0 nan nan nan -1 -1 -0 -0 -0 -0 -0 -0 -0 -0 -0 -0 -0 -0 -0 -0 -0 -0 -0 -0 -0 -0 -0 -0 -0 -0 -0 -0 -0 -0 -0 -0 -0 -0 -0 -0 -0 -0 -0 -0 -0 -0 -0 -0 -0 -0 -0 -0 -0 -0 -0 -0 -0 -0 -0 -0 -0 -0 -0 -0
-0 -0 -0 -0 -0 nan -0 -0 -0 -0 -0 nan -0 -0 -0 -0 -0 -0 -0 -0 -0 -0 -0 -0 -0 -0 -0 -0 -1 -1 -0 -0 -0 -0 -0 -0 -0 -0 -0 -0 -0 -0 -0 -0 -0 -0 -0 -0 -0 -0 -0 -0 -0 -0 -0 -0 -0 -0 -0 -0 -0 -0 -0 -0 -0 -0 -0 -0 -0 -0 -0 -0 -0 -0 -0 -0 -0 -0 -0 -0 -0 -0 -0 -0 -0 -0
-0 -0 nan -0 -0 -0 -0 -0 nan nan nan nan -0 -0 -0 -0 -0 -0 nan nan nan -0 -1 -0 -0 -1 -0 -0 -0 -0 -6 -2 -0 -0 -0 -0 -0 -0 -0 -0 -0 -0 -0 -0 -0 -0 -0 -0 -0 -0 -0 -0 -0 -0 -0 -0 -0 -0 -0 -0 -0 -0 -0 -0 -0 -0 -0 -0 -0 -0 -0 -0 -0 -0 -0 -0 -0 -0 -0 -0 -0 -0 -0 -0 -0 -0
-0 -0 nan nan nan -0 -0 nan nan nan nan -0 -0 -0 -0 -0 -0 -0 -0 -0 -0 -0 -0 -0 -0 -1 -0 -0 -0 -0 -0 -5 -0 -0 -0 -0 -0 -0 -0 -3 -3 -0 -0 -0 -0 -0 -0 -0 -0 -0 -0 -0 -0 -0 -0 -0 -0 -0 -0 -0 -0 -0 -0 -0 -0 -0 -0 -0 -0 -0 -0 -0 -0 -0 -0 -0 -0 -0 -0 -0 -0 -0 -0 -0 -0 -0
-0 -0 -0 nan nan nan nan nan nan nan -0 -0 -0 -0 -1 -0 -1 -1 nan -1 -1 -0 -0 -0 -0 -0 -0 -0 -0 -0 -0 nan -2 -2 -2 -0 -0 -0 -0 -0 -0 -0 -0 -0 -0 -0 -0 -0 -0 -0 -0 -0 -0 -0 -0 -0 -0 -0 -0 -0 -0 -0 -0 -0 -0 -0 -0 -0 -0 -0 -0 -0 -0 -0 -0 -0 -0 -0 -0 -0 -0 -0 -0 -0 -0 -0
-0 -0 -0 nan nan nan nan nan -0 -0 -0 -0 -0 -0 -0 -0 -0 -0 -0 -2 -2 -0 -0 -2 -2 -0 -0 -0 -0 -0 -0 nan nan nan -1 -0 -0 -0 -0 -0 -0 -0 -0 -0 -0 -0 -0 -0 -0 -0 -0 -0 -0 -0 -0 -0 -0 -0 -0 -0 -0 -0 -0 -0 -0 -0 -0 -0 -0 -0 -0 -0 -0 -0 -0 -0 -0 -0 -0 -0 -0 -0 -0 -0 -0 -0
-0 -0 nan nan nan nan -0 -0 -0 -0 -0 -0 -0 -0 -0 -1 -0 -0 -1 -2 -2 -2 -1 -1 -1 -0 -0 -0 -0 -0 -0 -5 -2 -2 -0 -0 -0 -0 -0 -0 -0 -0 -0 -0 -0 -0 -0 -0 -0 -0 -0 -0 -0 -0 -0 -0 -0 -0 -0 -0 -0 -0 -0 -0 -0 -0 -0 -0 -0 -0 -0 -0 -0 -0 -0 -0 -0 -0 -0 -0 -0 -0 -0 -0 -0 -0
-0 -0 -0 nan nan -0 -0 -0 -0 -0 -0 -0 -0 -0 -0 -0 -1 -1 -1 -1 -1 -1 -1 -0 -0 -0 -0 -0 -0 -0 -0 -5 -0 -0 nan -0 -0 -0 -0 -0 -0 -0 -0 -0 -0 -0 -0 -0 -0 -0 -0 -0 -0 -0 -0 -0 -0 -0 -0 -0 -0 -0 -0 -0 -0 -0 -0 -0 -0 -0 -0 -0 -0 -0 -0 -0 -0 -0 -0 -0 -0 -0 -0 -0 -0 -0
-0 -0 nan -0 -0 -0 -0 -0 -0 -0 -0 -3 -0 -0 -0 -1 -0 -0 -0 -0 -0 -0 -0 -0 -0 -0 -0 -0 -0 -0 -0 -4 -1 -1 -0 -0 -0 -0 -0 -0 -0 -0 -0 -0 -0 -0 -0 -0 -0 -0 -0 -0 -0 -0 -0 -0 -0 -0 -0 -0 -0 -0 -0 -0 -0 -0 -0 -0 -0 -0 -0 -0 -0 -0 -0 -0 -0 -0 -0 -0 -0 -0 -0 -0 -0 -0
-0 -0 -0 -0 -0 -0 -0 -0 -0 -0 -0 -0 -0 -0 -0 -1 -1 -1 -0 -0 -0 -0 -0 -0 -0 -0 -0 -0 -0 -0 -0 -3 -3 -3 -0 -0 -0 -0 -0 -0 -0 -0 -0 -0 -0 -0 -0 -0 -0 -0 -0 -0 -0 -0 -0 -0 -0 -0 -0 -0 -0 -0 -0 -0 -0 -0 -0 -0 -0 -0 -0 -0 -0 -0 -0 -0 -0 -0 -0 -0 -0 -0 -0 -0 -0 -0
-0 -0 -0 -0 -0 -5 -10 -7 -7 -7 -2 -1 -0 -0 -1 -0 -0 -0 -0 -0 -0 -0 -1 -1 -1 -0 -0 -0 -0 -0 -0 -0 nan nan nan -0 -0 -0 -0 -0 -0 -0 -0 -0 -0 -0 -0 -0 -0 -0 -0 -0 -0 -0 -0 -0 -0 -0 -0 -0 -0 -0 -0 -0 -0 -0 -0 -0 -0 -0 -0 -0 -0 -0 -0 -0 -0 -0 -0 -0 -0 -0 -0 -0 -0 -0
-1 -0 -0 -0 -0 -4 -2 -1 -0 -0 -0 -0 -0 -0 -0 -0 -0 -0 -0 -0 -0 -0 -0 -0 -0 -0 -0 -0 -0 -0 -0 -0 nan nan -0 -0 -0 -0 -0 -0 -0 -0 -0 -0 -0 nan nan -0 -0 -0 -0 -0 -0 -0 -0 -0 -0 -0 -0 -0 -0 -0 -0 -0 -0 -0 -0 -0 -0 -0 -0 -0 -0 -0 -0 -0 -0 -0 -0 -0 -0 -0 -0 -0 -0 -0
-0 -0 -0 -0 -0 -0 -0 -0 -0 -0 -0 -0 -0 -0 -0 -0 -0 -0 -0 -0 -0 -0 -0 -0 -0 -0 -0 -0 -0 -0 -0 -0 -0 -0 -0 -0 -0 -0 -0 -0 -0 -0 -0 -0 -0 -0 nan nan nan nan -0 -0 -0 -0 -0 -0 -0 -0 -0 -0 -0 -0 -0 -0 -0 -0 -0 -0 -0 -0 -0 -0 -0 -0 -0 -0 -0 -0 -0 -0 -0 -0 -0 -0 -0 -0
-0 -0 -0 -0 -0 -0 -0 -0 -0 -0 -0 -0 -0 -0 -0 -0 -0 -0 -0 -0 -0 -0 -1 -0 -0 -0 -0 -0 -0 -0 -0 -0 -0 -0 -0 -0 -0 -0 -0 -0 -0 -0 -0 -0 -0 -0 -0 -0 -0 -0 -0 -0 -0 -0 -0 -0 -0 -0 -0 -0 -0 -0 -0 -0 -0 -0 -0 -0 -0 -0 -0 -0 -0 -0 -0 -0 -0 -0 -0 -0 -0 -0 -0 -0 -0 -0
-0 -0 -0 -0 -0 -0 -0 -0 -0 -0 -0 -0 -0 -0 -0 -0 -0 -0 -0 -0 -0 -0 -0 -0 -0 -0 -0 -0 -0 -0 -0 -0 -0 -0 -0 -0 -0 -0 -0 -0 -0 -0 -0 -0 -0 -0 -0 -0 -0 -0 -0 -0 -0 -0 -0 -0 -0 -0 -0 -0 -0 -0 -0 -0 -0 -0 -0 -0 -0 -0 -0 -0 -0 -0 -0 -0 -0 -0 -0 -0 -0 -0 -0 -0 -0 -0
-0 -0 -0 -0 -0 -0 -0 -0 -0 -0 -0 -0 -0 -0 -0 -0 -0 -0 -0 -0 -0 -0 -0 -0 -0 -0 -0 -0 -0 -0 -0 -0 -0 -0 -0 -0 -0 -0 -0 -0 -0 -0 -0 -0 -0 -0 -0 -0 -0 -0 -0 -0 -0 -0 -0 -0 -0 -0 -0 -0 -0 -0 -0 -0 -0 -0 -0 -0 -0 -0 -0 -0 -0 -0 -0 -0 -0 -0 -0 -0 -0 -0 -0 -0 -0 -1
-0 -0 -0 -0 -0 -0 -0 -0 -0 -0 -0 -0 -0 -0 -0 -0 -0 -0 -0 -0 -0 -0 -0 -0 -0 -0 -0 -0 -0 -0 -0 nan nan nan nan -0 -0 -0 -0 -0 -0 -0 -0 -0 -0 -0 nan -0 -0 nan nan -0 -0 -0 nan -0 -0 -0 -0 -0 -0 -0 -0 -0 -0 -0 -0 -0 -0 -0 -0 -0 -0 -0 -0 -0 -0 -0 -0 -0 -0 -0 -0 -2 -2 -1
-0 -0 -0 -0 -0 -0 -0 -0 -0 -0 -0 -0 -0 -0 -0 -0 -0 -0 -0 -0 -0 -0 -0 -0 -0 -0 -0 -0 -0 -0 nan nan nan nan nan -0 -0 -0 -0 -0 -0 -1 -1 -0 -0 -0 -0 nan nan nan -0 -0 -0 -0 nan -0 -0 -0 -0 -0 -0 -0 -0 -0 -0 -0 -0 -0 -0 -0 -0 -0 -0 -0 -0 -0 -0 -0 -0 -0 -0 -0 -2 -2 -2 -1
-0 -0 -0 -0 -0 -0 -0 -0 -0 -0 -0 -0 -0 -0 -0 -0 -0 -0 -0 -0 -0 -0 -0 -0 -0 -0 -0 -0 -0 -0 -0 nan -0 -0 -0 nan -0 -0 -0 -0 -0 -1 -0 nan nan nan -0 -0 -0 nan nan nan nan nan nan nan nan nan nan nan nan nan -0 -0 -0 -0 -0 -0 -0 -0 -0 -0 -0 -0 -0 -0 -0 -0 -0 -0 -0 -0 -0 -1 -1 -0
-0 -0 -0 -0 -0 -0 -0 -0 -0 -0 -0 -0 -0 -0 -0 -0 -0 -0 -0 -0 -0 -0 -0 -0 -0 -0 -0 -0 -0 -0 -0 -0 -0 -0 -0 -1 -0 -0 -0 -0 -0 -0 -0 -0 -0 nan nan nan nan nan nan nan nan nan nan nan nan nan nan nan nan nan nan -0 -0 -0 -0 -0 -0 -0 -0 -0 -0 -0 -0 -0 -0 -0 -0 -0 -0 -0 -0 -1 -1 -0
-0 -0 -0 -0 -0 -0 -0 -0 -0 -0 -0 -0 -0 -0 -0 -0 -0 -0 -0 -0 -0 -1 -2 -0 -0 -0 -0 -0 -0 -0 -0 nan -0 -0 -0 -0 -0 -0 -0 -0 -0 nan -0 -0 -0 -0 nan nan nan nan nan nan nan nan nan nan nan nan nan nan nan nan nan nan nan nan nan nan nan nan -0 -0 -0 -0 -0 -0 -0 -0 -0 -0 -0 -0 -0 -0 -0 -0
-0 -0 -0 -0 -0 -0 -0 -0 -0 -0 -0 -0 -0 -0 -0 -0 -0 -0 -0 -0 -0 nan nan nan nan nan nan nan -0 -0 -0 nan -0 -0 -0 -0 -0 -0 nan -0 -0 -0 -0 -0 -0 nan -0 -0 -0 -0 -0 nan nan nan nan nan nan nan nan nan nan nan nan nan nan nan nan nan nan nan nan nan nan nan -0 -0 -0 -0 -0 -0 -0 -0 -0 -0 -0 -0
-0 -0 -0 -0 -0 -0 -0 -0 -0 -0 -0 -0 -0 -0 -0 -0 -0 -0 -0 nan nan -0 -0 -2 -2 nan nan nan nan nan -0 nan -0 -0 -0 -0 nan nan nan nan nan -0 -0 -0 -0 -0 -0 -0 -0 -0 -0 -0 nan nan nan nan nan nan nan nan nan nan nan nan nan nan nan nan nan nan nan nan nan nan -0 -0 -0 -0 -0 -0 -0 -0 -0 -0 -0 -0
-0 -0 -0 -0 -0 -0 -0 -0 -0 -0 -0 -0 -0 -0 -0 nan -0 -0 -0 -4 -4 -5 -0 -0 -0 -0 -0 nan nan nan -2 -1 -0 -0 -0 -2 nan nan nan -0 -0 -0 nan -0 -0 -0 nan -0 -0 -0 -0 -0 nan nan nan nan nan nan nan nan nan nan nan nan nan nan nan nan nan nan nan -0 -0 -0 -0 -0 -0 -0 -0 -0 -0 -0 -0 -0 -0 -0
-0 -0 -0 -0 -0 -0 -0 -0 -0 -0 -0 nan -0 -0 -0 nan -0 -0 -0 -0 -0 -3 nan nan nan nan -0 -0 -8 -8 -7 nan nan nan -3 -4 nan nan nan -0 -0 -0 -0 nan nan nan -0 nan nan -0 -0 nan -0 -0 -0 nan nan nan nan nan nan nan nan nan nan nan nan -0 -0 -0 -0 -0 nan nan -0 -0 -0 -0 -0 -0 -0 -0 -0 -0 -0 -0
-0 -0 -0 -0 -0 -0 -0 -0 -0 -0 nan -0 -0 -0 nan -0 -0 -0 -0 -0 -0 -0 -0 nan nan nan nan nan -2 -2 -1 -5 nan nan nan nan nan nan nan -0 -0 -0 -0 nan nan nan nan nan nan -0 -0 nan -0 -0 nan nan nan nan nan nan nan nan nan nan nan -0 nan nan -0 -0 -0 nan nan nan nan nan nan nan -0 nan nan -0 -0 -0 -0 -0
-0 -0 -0 -0 -0 -0 -0 -0 -0 -0 nan -0 -0 -0 -0 -0 -0 -0 -0 -0 -0 -0 -0 -0 -0 -0 -0 -0 -0 -0 -1 nan -4 -4 nan nan nan nan nan nan nan -0 -0 -0 -0 -0 nan nan nan -0 -0 nan nan nan nan nan nan nan -0 nan nan nan nan nan nan nan nan nan nan nan nan nan nan nan nan nan nan nan nan nan nan nan -0 nan nan nan
-0 -0 -0 -0 -0 -0 -0 -0 -0 -0 -0 nan -0 -0 -0 -0 -0 -0 -0 -0 -0 -0 -0 -0 -0 -0 -0 -3 nan nan nan nan nan nan nan nan nan nan nan nan nan nan nan nan nan nan -0 -0 -0 -0 -0 -0 -0 -0 -0 nan nan -0 -0 nan nan nan nan nan nan nan nan nan nan nan nan -0 -0 -0 nan nan nan nan nan nan nan nan -1 nan nan nan
-0 -0 -0 -0 -0 -0 -0 -0 -0 -0 -0 -0 nan nan -0 nan nan nan -0 -0 -0 -0 -0 nan nan -0 -0 -0 nan nan nan nan nan nan nan nan nan nan nan nan nan nan nan nan nan nan -0 -0 -0 -0 -0 nan nan nan nan nan nan nan -0 nan nan nan nan nan nan nan nan nan nan nan -0 nan nan nan nan nan nan nan nan nan nan -0 -0 nan nan nan
-0 -0 -0 -0 -0 -0 -0 -0 -0 -0 -0 -0 nan nan -0 -0 -0 -0 -0 -0 -0 -0 -0 -0 -0 -0 -0 -0 nan nan nan nan nan nan nan nan nan nan nan nan nan nan nan nan nan -0 -0 -0 -0 -0 -0 nan nan nan -0 nan nan nan nan nan nan -0 nan nan nan nan nan nan nan nan nan nan nan nan nan nan nan nan nan -1 -1 -0 -0 nan nan nan
-0 -0 -0 -0 -0 -0 -0 -0 -0 -0 nan nan nan nan nan -0 -0 -0 -0 -0 -0 -0 -0 -0 -0 -0 -0 -0 nan nan nan nan nan nan nan nan nan nan nan -1 -1 -0 -0 nan nan -0 -0 -0 -0 -0 nan nan nan nan nan nan nan nan nan nan nan nan nan nan nan nan nan nan nan nan nan nan nan nan -2 nan nan nan nan nan nan nan -0 -1 -1 -1
-0 -0 -0 -0 -0 -0 -0 nan nan nan nan nan nan nan nan -0 -0 -0 nan -0 -0 -0 -0 -0 -0 -0 nan nan nan nan nan nan nan nan nan nan -1 -1 -2 -3 -3 nan -0 nan nan nan -0 -0 -0 nan nan nan nan nan nan nan nan nan nan nan nan nan nan nan nan nan nan nan nan nan nan nan nan nan -1 -2 -4 -4 nan nan nan nan nan nan nan -1
-0 -0 -0 -0 -0 -0 -0 -0 -0 -0 nan -0 nan nan nan nan nan nan -0 -0 -0 -0 -0 -0 -0 nan nan -0 nan nan nan nan nan nan nan nan -2 -2 -2 nan nan nan nan nan nan nan nan nan nan -0 -0 nan nan nan nan nan nan nan nan nan nan nan nan nan nan nan nan nan nan nan nan nan nan nan nan -2 -5 -5 -4 -3 -3 nan -3 -3 -3 -2
-0 -0 -0 -0 -0 -0 nan -0 -0 -0 nan -0 nan nan nan -0 -0 -0 -0 -0 -0 nan -0 -0 -0 nan nan nan nan nan nan -0 nan nan nan nan nan nan nan nan nan -4 nan nan nan nan -0 nan nan -0 -0 nan nan nan nan nan nan nan nan nan nan nan nan nan nan nan nan nan nan nan nan -4 nan nan -2 -3 -3 -3 -6 -8 -8 -7 -4 -3 -3 -1
-0 -0 nan -0 -0 -0 nan -0 nan nan -0 -0 -0 -0 nan -0 -0 -0 -0 -0 -0 -0 -0 -0 -0 -0 nan nan nan nan -0 -0 -0 -0 -0 nan nan nan nan nan nan nan -1 -0 -0 -0 -0 nan nan nan -0 nan nan nan nan nan nan nan nan nan nan nan nan nan nan nan nan nan nan nan nan nan -1 -1 -1 -1 -2 -2 -5 -11 -11 -12 -4 -1 -1 -0
-0 -0 -0 -0 -0 -0 -0 nan nan nan -0 -0 -0 -0 nan -0 -0 -0 -0 -0 -0 -0 -0 -0 -0 -0 nan nan nan nan -0 -0 -0 -0 nan nan nan nan nan nan nan nan nan -1 -1 nan nan nan nan nan nan nan nan nan nan nan nan nan nan nan nan nan nan nan nan nan nan nan nan nan nan nan nan nan nan nan -2 -2 -3 nan nan nan -5 -0 -0 -0
-0 -0 -0 -0 -0 -0 -0 nan nan nan -0 -0 nan nan nan nan nan nan nan -0 -0 -0 nan nan nan nan nan nan nan nan nan nan -0 -0 nan nan nan nan nan -0 -0 -0 -0 nan nan nan nan nan nan nan nan nan nan nan nan nan nan -0 -0 nan nan nan nan nan nan nan nan nan -5 -5 -4 nan nan nan nan nan -2 -2 -3 nan nan nan nan nan nan -2
-0 -0 -0 -0 -0 -0 -0 -0 nan nan nan nan -0 -0 nan nan nan nan nan nan nan nan nan nan nan nan nan nan -0 -0 nan nan nan nan nan nan nan nan nan -0 -0 -0 -0 -0 -0 nan nan nan nan nan nan nan nan nan nan -0 -0 -0 -0 -0 -0 nan nan nan nan nan -1 -1 -3 -3 -4 -4 -3 -3 nan -1 -1 -1 -3 nan nan nan nan nan nan -4
Wind_Speed
9 9 10 12 13 12 11 13 14 14 13 11 11 11 11 12 12 13 15 15 15 14 14 14 15 16 18 21 23 25 26 27 28 29 29 30 30 30 30 31 31 32 32 33 33 34 34 34 34 34 34 34 34 34 34 34 34 34 34 34 33 33 33 33 32 32 32 32 32 31 31 31 31 31 31 31 31 31 32 31 31 31 31 31 31 31
9 9 9 12 13 13 11 13 13 14 14 13 13 12 12 13 13 12 12 13 14 14 13 13 14 16 18 19 21 24 25 27 28 28 29 30 30 30 31 31 31 32 32 33 33 33 33 33 33 33 33 33 33 34 34 34 34 33 33 33 33 32 32 32 32 32 32 32 31 31 30 31 31 31 31 31 31 31 31 31 31 31 31 31 31 31
10 10 9 10 12 12 11 13 13 13 14 14 14 14 15 15 14 11 10 11 11 12 12 12 13 15 17 17 20 23 25 26 27 28 29 29 30 30 30 31 31 32 32 33 33 33 33 33 33 33 33 33 33 33 33 33 33 33 33 32 32 32 32 32 32 32 32 31 31 31 31 31 31 31 31 31 31 31 31 31 31 31 31 31 31 31
10 10 10 9 10 11 12 12 13 13 12 13 14 16 16 14 12 10 10 10 10 11 12 13 14 14 14 15 17 20 24 26 27 28 28 29 29 30 30 31 31 32 32 33 33 33 33 33 33 33 33 33 33 33 33 33 32 32 32 32 32 32 32 32 32 32 32 31 31 31 31 31 31 31 31 31 31 31 31 31 32 32 32 31 31 31
10 10 10 9 9 10 11 12 12 12 12 12 13 14 14 12 10 9 9 10 11 12 12 13 14 14 13 13 15 19 23 25 27 27 28 29 29 30 30 31 31 32 32 32 32 32 32 32 32 32 32 32 32 32 32 32 32 32 32 32 32 32 32 32 31 31 31 31 31 30 30 30 30 30 30 30 30 30 30 31 31 31 31 30 30 30
10 10 10 9 9 9 9 10 10 11 11 11 11 11 11 10 9 9 9 10 11 11 11 11 12 13 13 13 15 19 22 24 26 27 28 29 29 30 31 31 31 31 32 32 32 31 31 31 31 31 32 32 32 32 32 32 32 32 32 32 32 32 31 31 31 31 31 30 30 30 29 29 29 29 29 29 29 29 29 29 30 30 29 29 29 29
10 9 9 9 9 9 9 9 10 10 10 9 9 9 9 9 9 10 10 10 10 10 10 11 11 12 12 14 16 18 20 22 24 26 27 28 28 29 29 30 30 30 31 31 31 31 31 31 31 31 31 31 32 32 32 32 32 32 32 32 32 32 31 31 31 31 30 30 30 30 29 29 29 29 29 29 29 29 29 29 29 29 28 28 28 28
11 10 9 9 9 9 9 9 9 9 9 8 8 8 8 8 9 10 11 11 11 11 10 11 11 11 11 13 15 16 16 17 18 20 22 23 24 26 27 28 29 29 30 30 30 30 30 30 31 31 31 31 32 32 32 32 32 32 32 32 32 32 31 31 31 31 31 31 30 30 30 30 30 29 29 29 29 30 30 30 30 30 29 29 29 29
11 11 11 10 10 10 9 9 8 8 7 7 7 8 9 9 10 10 10 11 11 10 10 11 11 11 11 12 13 14 15 15 15 15 17 17 18 20 23 24 26 27 28 28 29 29 30 30 30 31 31 32 32 32 33 33 32 32 32 32 32 31 31 31 31 31 31 31 30 30 30 30 30 30 30 30 30 30 31 31 31 31 30 30 30 30
11 12 11 10 9 9 9 9 8 6 6 7 7 8 9 11 11 11 11 11 10 9 9 11 11 12 12 12 12 13 14 15 17 18 19 19 20 22 22 22 22 23 26 27 28 29 29 30 30 31 31 32 32 32 32 32 32 32 32 32 32 31 31 31 31 31 31 31 30 30 30 30 30 30 30 30 30 30 31 31 31 31 31 31 31 31
11 11 10 9 8 7 6 7 6 6 7 8 9 9 9 10 11 12 13 12 11 10 10 10 11 11 11 11 11 12 12 13 14 16 18 19 21 23 22 22 22 22 24 25 26 27 28 29 30 30 31 31 31 31 31 31 31 31 31 31 31 31 31 31 31 31 31 31 30 30 30 30 30 30 30 30 30 30 30 31 31 31 31 31 31 31
10 9 8 7 6 6 5 6 6 7 8 9 10 10 10 9 10 11 12 13 12 12 11 11 10 10 11 11 11 11 11 11 11 11 12 13 14 15 16 16 17 18 20 21 23 24 26 27 28 29 29 29 29 29 29 29 29 30 30 30 30 30 31 31 31 30 30 30 30 30 30 30 30 30 30 30 30 30 30 30 30 30 31 31 31 32
8 7 6 6 5 6 6 7 8 8 9 9 10 11 10 9 9 10 11 12 12 12 12 11 11 10 10 10 10 10 10 11 11 10 10 10 10 10 11 11 12 12 13 14 15 17 21 23 25 25 26 26 27 28 28 28 28 29 29 29 30 30 30 30 30 30 30 30 30 30 30 30 30 30 30 30 30 30 30 30 30 30 31 31 31 32
7 5 5 6 7 7 8 9 10 10 10 9 10 10 10 9 10 10 10 11 12 11 11 12 11 11 9 9 9 9 10 10 10 10 10 9 9 10 10 11 11 11 11 12 12 14 16 18 18 19 22 23 24 25 25 26 27 28 28 29 29 29 30 30 30 30 30 30 30 31 31 31 31 31 31 31 31 31 31 30 30 31 31 31 31 32
5 6 7 8 9 9 9 10 10 11 10 10 10 10 10 10 10 10 10 11 11 11 11 12 12 11 9 8 8 9 9 9 9 10 10 10 10 10 11 11 12 11 11 11 12 13 15 15 14 14 16 19 21 22 23 25 26 27 28 29 29 30 30 30 30 30 31 31 31 31 31 31 31 31 31 31 31 31 31 31 31 31 31 31 31 31
6 7 9 10 10 10 9 10 10 10 10 10 9 10 10 10 10 10 10 11 11 10 10 11 11 10 8 7 7 8 9 9 9 9 10 10 10 10 11 11 12 12 11 11 12 12 12 12 13 13 15 18 21 24 26 26 27 28 29 29 30 30 31 31 31 31 31 31 32 32 32 32 31 31 31 31 31 31 31 31 31 31 31 31 31 31
8 9 10 10 11 10 10 10 10 10 10 9 9 9 9 10 10 10 10 10 9 8 8 9 9 9 8 7 7 8 8 9 9 9 10 11 11 10 10 11 12 12 12 11 11 11 11 12 12 12 13 17 21 24 26 27 28 29 30 30 31 31 31 31 32 32 32 32 32 32 32 31 31 31 31 31 31 31 31 31 31 31 31 31 31 31
9 9 10 10 10 10 10 9 9 9 9 9 9 9 9 10 10 9 9 8 8 8 8 8 8 8 9 9 8 7 9 9 9 10 11 11 11 11 10 11 11 12 12 12 11 11 11 12 12 12 14 20 24 26 28 29 29 30 31 31 31 31 31 31 31 31 32 32 31 31 31 31 31 31 31 31 31 31 31 31 31 31 31 32 32 32
10 9 10 10 10 10 9 9 9 9 9 9 9 10 10 10 9 9 8 8 8 8 9 9 9 9 9 10 10 10 9 10 10 10 11 12 11 11 10 10 11 11 12 12 11 11 11 12 13 16 20 24 26 27 28 29 30 30 31 31 31 31 31 31 31 31 31 31 31 31 31 31 31 31 31 31 31 31 31 31 31 31 31 32 32 32
10 10 9 9 9 10 9 9 9 9 10 10 10 10 10 9 9 8 8 8 8 8 9 10 10 10 10 11 11 11 10 10 10 10 11 12 12 11 10 10 11 11 11 11 11 11 11 11 13 16 20 23 25 27 28 28 29 29 30 30 30 30 31 31 31 31 31 31 31 31 31 31 31 31 31 31 31 31 31 31 31 31 31 32 32 32
11 11 10 9 9 9 9 9 10 11 12 12 11 10 9 8 8 8 8 9 10 10 10 10 10 10 9 10 11 11 11 10 10 9 9 10 10 10 9 9 10 11 12 11 10 10 11 11 11 12 15 20 24 26 27 28 29 29 30 30 30 31 31 31 31 31 31 32 32 32 31 31 31 31 31 31 31 31 31 31 31 31 31 32 32 32
10 11 11 11 11 10 10 11 12 13 13 11 9 8 7 8 9 10 10 10 10 10 10 10 10 10 10 11 12 12 11 10 9 8 8 9 10 10 8 9 10 11 12 11 10 10 11 11 11 12 16 21 24 26 28 28 29 30 30 30 31 31 31 31 31 31 31 31 31 31 31 31 31 31 31 32 32 32 32 32 32 32 32 32 32 32
11 11 12 12 11 11 10 11 11 10 10 9 8 8 8 9 10 11 11 10 10 10 10 10 10 11 11 11 11 11 10 9 8 8 7 9 11 10 9 9 9 10 11 11 10 11 11 11 11 13 17 22 25 27 28 29 29 30 30 30 30 30 31 31 31 31 31 31 31 31 31 31 31 31 31 31 32 32 32 32 32 32 33 33 33 33
11 11 12 11 10 9 8 8 8 8 8 9 9 9 9 10 10 11 10 10 10 10 10 10 10 11 10 11 11 10 9 8 8 7 6 8 10 10 9 9 10 11 11 11 11 11 12 12 12 12 14 19 23 26 27 28 29 29 29 30 30 30 30 30 30 30 30 30 30 31 31 31 31 31 31 31 31 31 32 32 32 33 33 33 33 33
11 11 10 10 10 11 11 12 12 13 13 12 11 11 11 11 12 12 11 10 10 9 9 10 10 10 10 10 10 9 8 8 8 7 6 7 9 10 9 9 10 11 11 11 11 11 11 12 12 12 12 16 20 24 26 27 28 28 28 29 29 29 29 29 29 29 29 30 30 30 30 30 30 31 31 31 31 31 31 32 32 32 33 33 33 33
15 15 14 15 17 20 22 22 22 22 21 17 14 11 11 11 11 11 10 9 9 9 9 10 10 10 9 9 9 8 8 8 7 7 7 7 9 10 9 8 9 10 11 11 10 11 11 12 12 12 12 14 17 21 24 25 26 27 27 27 28 28 28 28 29 29 29 30 30 30 30 31 31 31 31 31 31 31 32 32 32 32 32 33 33 32
20 20 21 22 23 24 25 25 25 25 25 22 19 16 13 11 10 10 10 9 8 8 9 10 10 10 10 9 9 8 8 8 7 7 7 8 9 9 9 8 9 10 11 11 11 11 12 13 13 12 12 12 13 16 20 22 24 25 26 27 27 28 28 28 29 29 29 30 30 30 30 31 31 31 31 31 31 32 32 32 32 32 32 31 29 28
18 19 20 21 22 23 24 24 24 23 23 23 23 21 16 12 10 10 10 9 8 9 9 10 10 10 9 9 9 9 9 8 7 7 7 7 7 8 9 9 9 10 10 10 11 11 12 12 12 12 11 11 11 13 16 19 22 23 24 26 27 27 28 28 28 29 29 29 30 30 30 30 30 31 31 31 31 32 32 32 32 32 30 27 22 18
16 17 19 21 21 22 22 21 21 20 21 21 21 19 15 10 9 9 9 9 8 9 9 10 9 9 9 10 10 10 9 9 8 7 7 6 7 8 8 8 9 9 9 10 10 10 9 9 9 10 10 11 11 11 13 16 18 19 21 23 24 25 26 27 27 28 28 28 29 29 30 30 30 30 31 31 31 32 32 33 32 29 24 20 17 15
13 15 16 17 17 17 17 16 16 16 18 19 19 17 13 9 8 8 8 8 8 9 9 10 10 9 9 9 9 9 8 8 7 7 7 7 7 7 8 9 9 8 8 8 9 8 8 7 7 8 9 11 11 11 11 12 13 13 14 17 19 20 22 24 25 26 27 28 28 29 29 29 30 30 30 31 31 31 32 33 31 26 18 15 14 14
13 13 12 13 13 12 12 11 12 12 14 15 15 13 11 9 8 8 8 7 8 8 9 9 9 9 9 8 8 7 7 7 7 8 7 6 6 7 9 9 9 8 7 7 7 8 9 7 7 7 9 10 11 11 11 11 11 11 11 12 13 15 19 21 23 24 25 26 26 27 28 28 29 29 30 30 30 31 31 32 30 24 16 14 14 14
12 11 10 10 10 10 9 9 9 9 9 10 10 10 9 9 8 8 7 7 7 8 8 9 9 9 9 8 8 7 7 8 9 10 9 7 6 7 8 9 9 9 7 7 7 8 9 8 8 8 9 10 10 10 11 11 11 10 11 11 11 12 16 18 19 20 20 22 23 25 26 27 28 28 29 29 30 30 31 32 30 25 17 14 14 15
11 10 9 9 9 9 8 8 8 8 8 8 8 8 8 9 9 8 8 7 7 7 8 9 9 9 9 10 9 9 8 9 10 11 11 8 6 6 8 9 9 9 8 8 8 8 8 8 9 9 9 9 10 10 10 11 10 10 10 10 10 11 14 15 15 15 16 17 18 20 22 24 25 26 27 28 29 29 30 31 30 27 21 16 14 14
10 10 10 9 9 9 8 8 8 8 8 8 8 8 8 8 8 8 8 8 7 7 7 8 9 9 9 9 9 9 10 10 11 12 12 9 7 7 8 9 10 10 9 8 8 8 8 9 10 10 9 9 9 9 10 10 10 10 9 9 10 10 11 12 12 12 13 14 14 14 16 18 20 22 23 25 26 27 28 29 30 29 27 20 16 14
10 10 10 9 9 9 9 9 9 9 8 8 8 8 8 8 8 8 8 8 8 7 7 8 8 9 9 9 9 10 11 11 12 13 12 10 8 7 8 9 9 9 9 9 8 8 8 10 11 11 10 10 10 9 9 9 9 9 9 9 10 10 10 11 11 11 12 12 12 12 12 12 13 15 17 20 22 24 26 28 29 30 30 27 23 19
9 9 9 9 9 9 9 9 9 9 9 8 8 8 9 9 9 9 9 8 9 9 9 9 9 9 9 9 10 11 12 12 13 14 13 11 9 8 8 8 9 9 9 10 9 9 9 10 11 12 12 12 11 9 9 9 9 9 9 10 10 10 11 11 11 11 11 12 12 12 11 11 12 12 14 18 21 24 26 28 29 30 31 31 29 26
9 9 9 9 8 9 9 9 9 9 8 8 8 9 9 9 10 10 9 9 9 9 10 11 11 10 11 10 10 11 12 12 13 14 14 12 11 9 8 8 9 10 9 10 10 10 10 10 11 11 11 11 10 9 9 10 10 10 10 10 10 10 11 11 11 11 11 12 12 12 12 12 12 13 14 18 21 22 24 26 27 28 30 30 31 31
9 9 9 8 8 8 8 8 8 8 8 9 9 9 10 10 11 11 10 10 11 11 10 10 10 11 14 14 14 13 14 15 16 16 17 14 11 10 9 9 9 10 9 9 9 10 10 10 11 11 11 10 11 11 11 11 11 11 11 10 10 10 11 11 10 10 10 11 12 13 14 13 13 12 13 14 14 15 16 17 19 21 24 25 27 30
9 9 9 9 8 8 8 8 8 8 9 9 9 10 10 11 12 12 11 11 11 11 11 11 11 11 13 14 15 16 16 16 16 16 16 14 12 10 10 10 10 10 10 9 9 9 10 10 10 11 11 11 11 12 11 11 11 12 12 11 11 10 10 10 10 10 10 11 12 14 13 12 12 11 12 12 11 12 12 12 13 15 16 16 18 22
9 9 9 9 9 8 8 9 9 9 9 9 10 10 10 10 10 10 11 10 10 11 12 12 12 11 12 12 13 14 14 13 13 13 13 12 11 10 9 10 10 10 10 9 9 9 10 10 11 11 11 11 11 11 11 11 12 12 13 11 10 10 10 10 10 10 10 11 11 12 12 12 11 12 12 12 12 12 12 11 12 12 13 12 12 13
9 9 9 9 9 9 9 9 9 9 9 9 9 9 9 9 9 9 9 10 10 10 10 10 11 11 11 11 11 12 12 12 13 13 12 12 11 11 9 9 9 9 10 9 9 9 10 10 11 12 11 11 11 12 13 13 13 14 14 12 11 11 12 12 11 11 10 10 11 11 12 13 13 13 12 12 12 12 12 12 12 13 12 11 11 10
9 9 9 8 8 8 8 9 9 10 10 9 9 8 8 8 8 9 9 10 10 9 9 9 10 10 11 11 11 10 10 10 11 11 11 12 12 11 10 10 9 9 9 9 10 10 10 10 11 11 11 11 11 11 11 13 13 13 13 12 13 13 13 12 11 9 9 11 11 12 13 13 13 12 13 13 12 12 13 13 14 15 14 12 11 11
9 9 9 9 9 9 9 10 10 9 9 8 8 8 8 8 8 9 9 10 10 10 10 9 9 10 11 11 11 10 9 9 9 10 11 11 11 11 11 11 10 9 9 9 9 10 10 11 11 10 11 10 10 11 12 13 13 13 12 12 12 11 9 10 10 10 10 11 12 12 12 12 12 12 12 12 12 12 12 14 15 16 15 13 12 12
8 8 9 9 9 9 9 9 8 8 8 8 8 8 8 8 9 9 9 9 10 10 10 9 9 9 10 11 11 11 10 9 10 10 10 10 10 10 10 10 10 10 9 9 9 9 10 10 10 10 10 9 10 10 11 12 12 12 12 12 12 11 10 11 12 12 12 12 12 12 12 12 12 12 12 12 11 11 11 11 11 12 13 12 12 11
8 8 9 8 8 8 8 9 9 9 8 8 8 9 8 9 9 9 9 9 10 10 9 9 8 8 9 10 10 10 10 9 9 8 8 9 11 11 10 9 9 9 9 9 9 9 9 10 10 10 10 9 9 10 11 11 12 12 12 12 12 12 12 12 12 13 13 13 13 13 14 14 13 12 12 11 11 10 10 10 11 11 11 11 11 11
8 8 9 8 8 9 9 9 9 9 9 9 9 9 9 9 8 9 9 9 9 10 9 9 8 8 9 10 10 10 10 10 9 8 7 8 8 8 7 7 7 8 8 8 9 9 9 10 10 11 10 9 10 10 11 11 11 11 11 12 12 11 12 12 12 12 12 13 14 14 16 15 14 13 12 12 11 11 10 10 10 10 11 10 10 11
9 9 9 9 9 9 9 9 9 9 9 9 9 9 9 9 9 9 9 9 9 9 9 9 9 9 10 10 10 10 10 11 10 10 9 8 8 8 7 7 7 8 8 8 9 10 10 10 11 11 10 10 10 10 10 10 10 10 11 11 11 11 11 11 11 12 12 12 13 15 17 16 14 13 13 12 12 11 10 10 9 9 10 10 10 11
9 9 9 9 9 9 9 9 9 9 10 10 10 9 9 9 10 10 9 9 9 9 9 9 9 9 10 10 10 10 10 11 11 10 10 9 9 8 8 7 7 7 8 9 10 10 11 11 12 12 11 10 9 10 10 10 10 10 10 11 11 11 12 12 12 11 12 12 14 16 16 14 13 13 13 13 12 11 11 10 9 9 9 9 10 11
9 9 9 9 9 9 9 9 9 10 10 10 10 10 10 10 11 11 9 9 9 9 8 9 9 10 10 10 10 10 11 11 10 10 9 9 9 8 8 8 8 8 8 8 8 9 9 10 11 12 11 10 9 9 10 10 10 10 10 10 10 10 11 11 12 12 12 13 15 16 15 13 12 12 12 12 13 13 13 12 11 9 8 8 9 10
9 9 9 9 9 9 10 10 10 10 10 11 11 11 10 10 10 9 9 9 8 8 8 9 9 10 10 10 11 11 11 10 10 9 9 8 8 8 9 9 9 9 9 8 8 8 7 7 7 8 10 11 10 9 9 9 10 10 10 10 10 10 10 11 11 12 12 13 14 15 15 13 12 11 11 12 13 14 14 13 12 10 9 9 9 10
9 9 9 9 9 9 9 10 10 10 10 11 11 11 10 10 10 9 9 8 8 9 9 9 9 9 10 11 11 11 11 10 10 10 9 9 8 8 9 9 9 9 9 9 9 8 7 7 7 6 6 7 8 8 7 8 9 10 10 10 9 9 9 10 11 12 13 13 13 13 13 13 12 12 11 12 12 13 14 14 14 13 12 11 11 12
Wind_Direction
294 297 299 301 301 299 297 299 298 297 296 296 295 294 295 294 293 292 292 292 291 290 290 289 290 291 292 292 291 290 290 290 290 291 291 291 291 291 290 289 289 288 288 287 287 287 287 287 287 288 288 288 288 288 288 288 288 288 288 287 287 287 287 286 285 284 283 282 281 281 281 281 281 281 281 280 280 279 278 277 277 276 276 275 274 274
296 297 298 301 300 299 296 297 296 294 295 295 295 295 295 295 295 294 293 291 290 289 290 291 292 294 295 294 292 291 290 290 290 290 290 290 290 290 289 288 288 288 288 287 287 288 288 288 289 289 289 290 290 290 290 290 289 289 288 288 287 287 286 285 284 283 282 281 281 280 280 280 279 279 278 278 278 277 276 276 275 274 274 273 273 272
300 298 298 299 298 297 296 297 295 293 292 293 294 295 295 296 295 294 293 291 290 290 291 293 295 294 294 292 290 289 289 289 289 289 289 289 289 289 289 288 289 289 289 289 290 290 291 291 291 291 291 291 291 290 290 289 289 288 287 287 286 285 284 283 282 281 281 280 280 279 279 278 277 277 276 276 275 275 274 273 273 272 271 270 270 270
298 298 299 298 296 293 293 295 295 294 292 292 293 294 295 295 295 294 294 293 292 291 291 292 293 293 292 291 290 289 288 288 288 288 288 289 289 290 290 291 291 291 292 292 291 291 291 291 290 290 290 289 289 289 288 287 287 286 286 285 284 284 283 282 281 281 280 280 279 278 277 277 276 275 275 274 273 272 271 271 270 269 268 267 267 267
294 295 298 297 294 292 292 293 293 293 293 292 293 294 295 295 295 294 293 291 290 290 290 292 293 293 292 291 289 289 288 289 289 290 290 291 292 293 293 293 292 292 292 291 290 290 289 289 288 287 287 287 287 286 286 285 285 285 284 284 283 283 282 282 281 281 280 280 279 278 278 277 276 275 274 273 273 272 271 271 269 268 267 266 265 266
291 292 294 293 293 292 293 293 293 294 294 293 294 295 297 296 294 292 289 289 290 291 292 293 293 292 291 290 290 290 291 292 293 294 294 294 294 294 293 292 291 290 289 289 288 287 287 286 286 286 285 285 285 285 285 285 285 285 285 284 284 284 284 283 283 283 282 282 281 280 280 279 279 278 277 276 275 275 274 274 273 271 270 268 267 267
289 288 289 289 289 289 290 292 293 295 296 297 297 297 295 293 291 290 291 293 294 294 293 292 291 291 291 292 294 295 296 296 297 296 295 294 293 291 290 289 288 288 287 287 286 286 285 285 285 285 285 285 285 285 286 286 286 285 285 285 285 285 285 285 285 285 284 284 283 283 282 282 281 281 280 279 279 279 278 278 278 277 275 273 271 269
289 288 286 286 287 288 288 289 293 296 299 299 299 297 294 292 291 292 294 293 293 294 295 294 295 295 296 298 299 299 298 297 296 295 294 292 290 288 288 287 287 286 286 286 286 285 285 285 285 285 286 286 286 286 286 286 287 287 287 287 287 287 287 286 286 286 285 285 284 284 283 283 282 282 281 281 280 280 280 280 279 279 278 276 274 272
287 288 286 285 286 289 291 291 294 297 297 295 293 293 296 296 296 296 296 295 296 297 299 301 301 300 300 300 299 297 295 293 291 290 290 289 288 287 287 287 287 286 286 286 286 286 286 286 286 286 286 286 287 287 287 288 288 288 288 288 288 288 287 287 286 286 285 285 284 283 283 282 282 281 281 280 280 279 279 278 278 277 277 275 274 272
282 284 285 285 285 287 291 294 296 296 289 285 284 287 292 298 302 303 303 301 302 303 303 302 302 301 300 297 295 293 292 290 289 288 288 288 288 288 287 287 287 286 286 286 286 286 286 286 286 287 287 287 288 288 288 288 288 288 288 288 288 287 287 286 286 285 285 284 284 283 282 282 281 281 280 279 278 278 277 276 276 275 275 274 273 271
281 281 282 285 285 285 285 289 294 295 291 289 288 288 291 300 305 308 307 306 306 305 302 299 298 298 298 297 295 293 291 290 289 289 288 288 288 288 288 287 287 286 286 286 286 286 286 287 287 287 287 287 287 287 287 287 287 287 286 286 286 286 285 285 285 285 284 284 283 283 282 281 281 280 279 278 277 277 276 275 274 273 273 272 271 270
279 281 283 285 287 288 286 289 292 295 298 299 299 299 301 305 308 308 307 306 305 304 302 298 295 294 294 295 295 294 292 291 290 291 290 290 289 289 289 288 287 287 287 287 286 286 286 286 286 286 286 286 286 286 285 285 285 285 285 285 284 284 284 284 284 283 283 282 282 281 281 280 279 279 278 277 276 275 274 273 272 271 270 269 268 267
276 278 281 283 287 293 298 299 301 302 304 305 306 306 307 310 310 307 302 300 300 300 300 298 295 292 291 291 292 292 292 291 292 292 293 293 293 293 293 291 290 289 288 287 286 285 285 285 285 285 284 284 284 284 284 284 283 283 283 283 283 283 283 282 282 281 281 280 280 279 279 278 277 277 276 275 274 273 272 271 270 269 268 267 265 264
281 285 289 294 297 300 303 304 305 306 307 307 307 306 307 308 306 303 297 295 295 295 296 295 294 293 292 290 290 290 292 293 294 295 294 294 295 296 295 292 290 289 288 287 285 284 285 285 285 284 283 283 283 283 282 282 282 282 282 282 282 281 281 280 280 279 279 278 278 278 277 277 276 276 275 274 273 272 271 269 268 267 266 265 264 263
298 306 306 304 303 303 304 306 305 305 305 306 305 304 304 302 300 297 294 293 294 295 295 293 292 291 290 290 292 294 295 296 297 297 296 295 295 295 295 292 290 288 288 286 285 285 285 285 284 283 282 281 281 281 281 282 282 281 281 281 281 280 280 280 279 279 279 279 278 278 278 277 276 275 275 274 273 272 271 269 268 267 266 265 264 263
313 310 305 303 302 302 303 304 304 304 304 304 303 302 299 297 295 294 293 293 294 296 296 296 295 294 291 291 295 298 300 299 298 297 298 295 295 295 295 292 290 288 286 285 285 285 286 284 282 281 281 281 281 282 282 282 282 282 282 282 281 281 281 281 281 281 280 280 279 279 278 277 277 276 275 274 273 272 271 270 269 268 267 266 265 265
309 305 302 301 300 301 302 302 302 301 302 301 298 295 293 292 292 291 291 292 293 294 295 298 300 302 302 301 301 302 304 302 300 298 297 294 294 294 294 291 288 287 287 285 285 285 286 285 283 282 282 282 282 282 283 283 283 283 284 284 283 283 283 282 282 281 281 280 280 279 278 277 276 275 275 274 272 271 271 270 269 268 267 266 265 264
301 299 298 297 298 299 302 302 301 299 298 296 294 291 289 288 287 288 288 290 292 293 296 298 300 301 303 304 305 307 310 306 302 299 296 293 293 293 293 289 287 286 286 286 286 286 286 284 283 282 282 282 283 283 284 284 284 284 285 284 284 284 283 283 282 281 281 280 279 279 278 277 276 275 274 273 272 271 270 269 268 267 266 265 264 263
296 295 296 296 298 300 300 299 298 296 294 292 292 291 289 288 288 288 288 290 292 295 299 299 298 296 296 295 299 304 311 307 303 299 296 293 293 294 295 290 287 285 285 285 286 286 286 284 283 282 282 283 283 284 284 284 284 284 284 284 283 283 282 282 282 281 280 280 279 278 278 277 276 275 274 273 272 271 270 269 268 267 266 265 264 263
294 294 294 296 297 296 294 292 290 290 290 290 291 290 289 289 289 289 290 294 296 297 297 296 294 293 292 292 296 302 309 308 303 296 292 291 292 293 295 291 288 286 285 285 287 288 287 285 284 283 283 283 283 283 283 283 283 283 283 283 283 283 283 282 282 281 281 280 279 279 278 277 276 275 274 274 273 272 271 270 269 268 267 266 265 264
292 292 291 292 292 291 289 288 288 288 289 291 290 288 286 290 294 297 300 301 300 298 295 291 290 291 294 294 297 301 307 305 299 293 290 289 290 291 294 292 289 287 286 287 288 289 287 286 284 283 282 283 283 284 283 284 284 284 284 284 284 284 283 283 282 281 281 280 279 278 277 277 276 275 275 274 274 273 272 271 270 269 269 268 267 266
288 287 288 287 286 284 283 284 286 287 289 289 289 290 294 302 304 305 305 302 299 296 293 290 290 292 293 292 294 296 300 297 293 290 291 290 290 291 294 293 290 288 287 289 290 290 289 287 285 285 285 285 286 286 286 286 286 286 285 285 285 284 283 283 282 282 281 280 280 279 278 277 276 276 275 274 274 273 272 271 270 269 268 267 266 266
283 284 286 286 284 283 283 284 286 288 290 291 293 297 303 305 304 302 300 298 295 293 291 290 290 289 288 287 289 291 293 291 289 288 289 289 290 293 296 295 292 289 288 291 294 295 293 290 289 288 288 287 287 287 287 286 286 286 285 285 285 284 284 284 283 282 282 281 280 279 278 277 276 275 274 273 272 271 270 269 268 267 266 265 264 264
284 285 286 286 284 282 281 283 288 293 298 299 301 301 301 299 297 295 293 292 290 289 289 289 289 288 286 287 288 290 293 293 293 291 288 287 289 293 297 297 294 291 290 294 297 298 296 292 290 288 288 287 286 286 286 286 286 286 286 286 286 286 285 285 284 283 282 281 280 279 278 277 276 274 273 272 271 270 268 268 267 266 265 264 263 262
286 286 286 287 288 290 293 297 300 303 304 304 303 302 300 298 295 292 290 288 287 287 289 290 291 291 291 293 293 294 295 296 295 293 288 287 288 291 295 297 296 294 294 296 298 297 295 292 289 288 287 286 286 286 286 286 286 286 287 287 286 286 286 285 284 283 282 281 280 279 279 278 277 276 274 273 272 271 269 268 268 267 266 265 264 263
288 289 290 294 297 300 303 304 304 304 304 302 302 301 300 299 297 294 290 289 290 292 294 294 293 294 295 296 295 295 296 298 296 293 289 288 289 291 295 299 297 295 294 296 296 296 294 292 290 290 289 288 287 287 287 287 287 287 287 287 287 286 286 285 285 284 284 283 283 282 281 280 279 278 277 276 275 273 272 271 270 269 268 268 267 265
291 293 296 299 302 303 304 304 303 302 302 301 300 300 299 299 297 294 291 293 296 298 298 297 296 296 297 296 295 296 300 301 298 293 290 288 289 292 296 300 299 297 296 296 296 296 294 292 291 291 289 288 287 287 287 287 288 288 288 288 288 288 287 287 287 286 285 284 284 283 282 281 280 278 278 276 275 274 273 272 271 270 269 269 268 266
295 299 303 304 304 303 302 301 301 301 301 300 300 299 299 297 295 293 292 297 300 300 296 296 296 297 298 297 298 298 300 298 296 294 295 291 289 290 296 300 301 300 299 297 295 294 292 290 289 289 288 289 289 289 289 290 290 290 289 289 289 288 288 287 286 286 285 284 283 282 281 280 278 277 276 275 274 273 272 271 270 269 268 267 265 263
301 303 304 303 302 301 301 300 300 299 298 298 298 298 298 295 291 290 293 298 299 297 293 293 294 295 296 297 297 297 295 293 296 300 306 297 290 289 296 301 302 303 302 299 297 293 288 287 287 289 291 292 293 294 293 293 292 291 290 289 288 287 286 286 285 284 284 283 282 281 280 279 278 277 276 275 274 273 272 271 270 269 268 265 262 259
307 306 304 302 301 301 300 299 297 296 296 297 298 298 297 293 288 287 290 294 294 292 291 292 293 294 295 297 297 295 291 294 301 310 313 301 293 292 299 301 302 303 306 304 302 299 294 289 289 292 295 297 297 296 295 294 292 290 288 288 287 286 285 284 284 284 283 282 282 281 280 280 279 278 277 276 275 274 273 272 272 270 268 264 261 259
309 307 304 303 302 301 300 298 296 296 296 298 299 299 297 293 289 287 287 288 287 287 288 290 292 293 294 296 296 295 293 298 306 312 312 300 293 294 301 301 301 302 304 304 304 304 303 300 299 298 299 298 297 294 292 291 290 289 288 287 286 285 284 284 284 284 283 283 282 282 281 280 280 279 278 277 276 275 274 274 272 271 268 265 262 260
307 305 303 303 303 302 300 298 298 298 299 299 299 298 295 292 290 288 287 285 283 283 284 287 289 290 290 288 288 288 290 296 303 307 307 299 293 294 299 298 299 299 300 296 294 296 300 303 305 305 304 299 296 294 291 290 289 287 287 287 285 284 284 285 285 285 285 284 284 283 282 281 280 279 278 278 277 276 275 274 272 270 267 264 261 260
305 304 303 303 302 301 300 300 300 301 301 300 299 297 295 293 292 289 287 284 282 281 282 285 287 288 287 285 283 282 285 291 297 303 305 300 296 294 298 298 298 298 298 293 288 286 287 293 299 303 302 299 296 294 293 291 289 287 285 286 286 286 287 288 288 287 287 286 285 284 283 282 281 279 278 277 276 276 275 273 272 269 266 263 261 259
304 303 303 302 302 302 302 303 303 303 303 301 300 298 297 295 294 292 289 286 283 280 279 281 284 286 287 286 284 284 285 288 295 301 305 301 296 294 297 297 298 298 299 295 292 288 284 288 293 298 300 298 296 294 294 293 292 290 288 286 287 289 289 290 290 288 287 287 285 284 283 281 279 278 277 276 275 274 273 272 270 268 266 263 260 258
304 304 304 304 304 305 306 306 306 305 304 302 301 300 299 298 296 294 292 289 286 282 278 277 277 279 282 284 285 286 287 291 296 301 302 297 294 292 295 295 297 298 298 296 295 294 290 291 293 296 297 298 297 295 293 295 295 295 293 290 289 289 289 290 289 288 287 286 284 281 280 278 277 275 274 273 272 272 271 271 269 268 265 263 260 257
304 304 305 306 307 308 308 307 307 306 306 304 303 302 301 300 298 297 294 292 289 286 283 279 276 273 273 275 278 281 285 289 294 296 296 293 291 290 291 291 293 295 294 294 294 294 293 293 294 295 296 297 297 297 297 299 300 299 297 294 292 290 288 287 286 285 285 284 282 280 279 277 275 273 271 271 271 271 271 270 269 268 266 264 261 258
304 304 306 308 308 309 308 308 308 307 306 305 305 304 303 302 300 298 295 293 290 288 286 284 280 276 272 270 271 273 278 284 287 289 289 288 287 285 284 286 288 290 289 290 292 293 294 294 295 296 295 294 295 299 303 306 305 303 299 297 295 293 290 287 285 283 281 280 280 280 279 278 277 275 273 272 272 272 271 270 269 267 266 264 262 260
304 305 307 308 308 308 308 307 307 307 306 306 305 304 303 301 300 298 296 294 291 288 287 285 283 280 277 275 273 272 274 277 280 282 282 282 281 280 280 282 284 284 283 284 286 289 292 293 295 297 296 295 294 296 301 304 305 303 300 298 296 293 289 288 285 283 281 280 280 280 280 279 278 277 276 274 273 272 271 268 266 265 265 264 262 260
306 306 307 308 309 309 308 307 306 305 305 304 303 302 300 299 298 297 296 294 292 290 289 288 286 284 282 279 277 276 275 276 277 277 278 277 277 276 277 279 280 281 280 279 280 282 284 286 289 291 294 296 297 298 300 300 300 300 302 301 297 293 288 288 288 287 284 283 283 283 282 279 277 276 275 273 271 269 268 267 264 263 262 261 261 260
307 306 307 307 308 307 305 304 304 304 303 302 301 300 298 298 298 298 297 296 294 293 292 291 289 286 285 283 281 280 278 277 276 275 275 273 270 270 272 275 278 280 280 278 276 276 277 279 281 284 286 290 294 297 299 298 298 299 303 303 301 298 297 296 294 290 285 282 281 281 281 280 278 275 273 271 268 266 265 265 264 262 259 257 257 258
307 307 307 307 306 305 303 302 302 302 302 301 301 300 300 300 301 301 301 300 299 297 297 296 294 291 289 287 285 282 280 276 274 273 272 270 268 267 268 271 274 277 279 278 276 275 276 278 280 283 285 287 289 291 292 292 294 297 299 297 295 295 298 296 293 289 286 284 282 282 283 283 281 279 275 272 269 265 262 263 264 264 261 256 252 251
306 306 306 306 306 305 304 303 302 301 301 300 300 300 300 300 301 302 303 304 304 303 304 303 301 299 298 295 292 287 282 277 275 274 273 270 268 267 268 269 271 273 276 277 277 276 276 278 280 282 284 285 287 288 289 290 292 294 294 293 294 296 296 294 292 291 292 292 290 288 287 285 284 281 279 276 272 268 264 262 262 261 261 256 252 248
305 304 304 304 303 303 303 303 303 302 302 301 299 299 299 299 300 301 301 302 302 303 304 303 302 301 300 299 298 296 291 285 281 279 277 273 271 269 268 266 267 268 271 276 279 281 282 281 279 279 279 281 282 284 286 289 292 293 292 292 296 300 302 302 303 303 300 295 292 290 288 286 284 282 281 278 274 270 266 263 261 260 258 256 253 250
303 302 302 302 302 303 304 304 304 303 303 301 300 299 299 300 301 300 300 299 299 300 301 301 300 298 297 296 298 301 301 297 292 286 280 276 273 270 270 269 268 269 271 275 280 285 287 285 282 280 279 280 279 280 281 285 288 290 290 292 294 294 293 297 301 303 301 297 293 291 289 288 288 286 285 281 277 272 267 263 261 258 256 254 252 251
302 303 303 304 305 306 306 305 304 303 303 302 301 300 301 302 301 300 299 298 299 299 300 301 301 299 297 298 301 303 304 303 300 295 287 281 279 278 278 276 275 274 273 272 273 276 282 284 285 285 285 282 278 276 277 280 283 286 288 291 292 291 287 290 293 296 297 298 298 297 296 296 295 294 291 288 284 279 274 270 267 265 262 258 255 253
305 305 306 306 306 305 304 304 304 304 303 302 302 302 302 303 301 299 298 298 299 299 300 301 299 297 296 300 302 304 305 305 305 304 301 296 292 290 285 282 279 277 274 272 270 270 271 275 280 284 287 284 280 276 273 276 279 283 288 292 294 294 292 292 293 294 296 298 299 300 301 301 300 298 296 295 293 290 284 277 272 270 268 265 262 258
307 306 306 306 305 304 304 305 305 305 305 305 305 305 305 304 303 301 300 300 299 299 300 300 298 295 294 297 300 302 304 305 306 307 307 306 305 302 297 291 286 282 279 277 274 270 267 267 269 272 277 280 281 280 277 276 279 284 290 294 297 297 297 296 296 297 297 298 300 301 304 305 304 303 301 300 299 297 293 287 279 273 271 270 267 264
306 306 305 305 305 305 305 306 307 307 307 306 306 306 306 307 306 305 303 303 302 301 300 301 299 297 295 296 297 299 300 302 303 305 307 308 309 308 307 304 298 292 287 283 279 275 269 264 261 259 260 264 270 276 280 282 284 287 291 295 296 297 297 297 299 301 301 300 300 302 304 305 305 305 305 306 305 304 302 299 293 285 278 275 273 271
305 304 304 304 304 305 305 307 307 307 306 306 306 307 307 307 307 306 303 303 302 301 299 299 299 298 298 298 298 299 300 300 301 303 305 307 309 310 311 311 309 306 301 295 289 283 276 267 257 249 243 244 251 262 274 281 286 289 292 294 295 297 298 300 302 304 305 304 304 303 304 303 303 303 305 308 309 310 309 307 303 297 290 283 279 277
303 302 303 303 303 303 304 305 306 305 305 305 306 306 307 307 307 305 303 302 300 299 297 297 297 297 298 299 300 301 302 302 303 303 304 307 309 312 312 314 314 314 312 310 308 305 300 289 271 253 237 232 235 245 265 278 287 292 295 296 297 299 300 302 304 306 308 308 307 307 306 305 305 307 308 310 312 313 313 312 311 309 305 300 295 290
304 303 303 303 302 302 303 303 303 303 303 303 304 305 305 305 306 306 305 304 302 300 298 297 295 295 296 298 300 301 302 303 303 304 304 307 310 311 312 314 316 317 317 318 319 320 320 319 314 299 269 243 233 235 256 277 289 297 299 299 301 302 302 303 305 307 309 309 309 309 309 310 312 314 316 315 315 316 316 316 316 317 317 316 313 309